Theta_e
305 306 306 305 310 312 313 313 310 310 311 312 311 308 311 308 307 307 308 309 308 307 307 306 307 312 309 307 305 305 303 302 301 302 305 307 306 305 304 302 306 304 301 305
309 308 307 306 305 308 310 308 308 307 310 305 304 307 307 306 308 306 308 308 306 305 306 306 306 310 308 305 304 304 303 301 299 304 307 306 306 306 305 304 302 302 302 305
315 313 310 307 306 305 309 310 307 308 309 308 304 304 306 306 305 305 306 306 306 306 305 305 306 306 308 306 304 306 304 302 300 300 303 304 304 305 304 303 297 303 304 304
316 316 314 310 307 306 309 310 305 308 302 304 305 304 306 306 306 304 305 305 304 304 304 304 305 305 304 305 306 305 304 304 304 304 305 305 305 305 304 304 303 302 303 303
309 315 317 316 310 308 310 310 308 306 305 305 305 304 305 306 303 304 304 305 305 304 304 304 304 304 303 303 304 304 303 302 304 304 304 304 305 304 304 303 303 303 303 303
307 308 314 317 315 309 306 306 307 308 305 305 303 304 306 305 304 303 305 304 303 304 304 304 303 303 303 302 303 302 302 302 302 299 303 304 302 304 304 303 303 302 302 302
304 306 308 312 314 310 305 305 308 308 303 304 304 305 305 304 304 304 304 304 303 304 304 302 303 303 302 302 301 302 302 302 300 299 301 300 302 303 303 303 303 302 302 303
302 304 305 307 311 312 307 303 305 309 303 305 305 304 304 304 303 303 304 304 303 302 302 302 303 303 304 304 302 301 301 300 299 298 298 301 303 304 303 303 302 303 302 302
301 302 303 304 306 310 307 304 302 307 307 303 306 304 304 301 301 303 303 303 303 301 302 304 300 304 304 303 302 303 301 300 300 301 296 297 301 303 303 302 301 302 301 301
300 300 301 301 303 305 308 307 304 304 307 306 305 304 303 304 304 301 303 303 302 303 301 302 301 304 303 301 303 302 300 299 302 302 297 300 302 303 302 299 299 301 301 303
300 300 300 300 301 302 303 306 308 305 303 305 306 304 305 304 305 301 303 302 302 300 300 300 302 299 302 302 301 302 300 297 298 299 297 301 302 301 301 300 301 301 302 302
303 300 299 300 300 300 301 304 306 306 305 304 305 306 303 304 304 304 303 303 303 303 300 300 297 300 298 300 300 301 301 300 299 299 299 301 302 302 301 301 302 302 300 300
317 310 302 300 300 300 300 303 309 306 305 307 305 306 305 303 303 303 304 303 303 303 304 303 299 298 298 298 299 301 300 302 299 299 300 301 301 301 301 302 302 300 299 299
314 314 309 302 301 300 303 306 307 305 305 304 305 305 305 304 301 302 303 304 303 303 303 302 295 296 301 297 299 299 300 300 299 298 300 301 301 301 302 301 298 298 298 296
311 312 313 311 302 303 307 305 301 301 304 305 305 305 303 303 302 301 302 301 302 302 302 300 298 301 300 299 299 300 301 300 297 300 300 300 301 302 301 298 297 296 295 295
309 310 311 307 303 305 305 302 304 304 304 300 299 304 303 302 302 302 301 301 301 302 302 301 301 301 299 290 297 300 301 301 301 300 301 301 301 300 298 297 296 295 295 294
305 308 309 308 306 305 302 304 305 300 301 300 301 302 303 302 301 301 301 302 302 302 302 300 300 300 300 301 300 300 301 300 301 301 300 301 301 297 297 296 295 294 294 293
305 306 309 308 306 304 302 301 303 299 300 302 298 299 302 301 301 301 301 301 302 302 301 300 300 300 300 299 300 300 300 301 301 301 301 299 298 297 296 295 294 294 293 293
305 305 309 306 304 303 302 302 301 302 301 301 300 298 296 301 301 302 302 302 299 300 299 300 300 300 300 300 300 300 300 301 301 301 300 298 297 296 295 294 294 293 293 293
305 307 305 303 302 302 302 301 302 302 301 301 301 299 297 300 302 302 302 301 301 301 300 300 299 299 300 300 301 300 300 301 301 299 298 297 296 295 294 294 293 293 292 292
302 306 304 302 302 302 301 301 301 300 301 301 301 301 299 300 301 301 302 301 298 298 297 297 297 297 299 301 301 300 300 301 300 299 298 296 295 294 294 293 293 292 292 292
302 304 302 302 301 299 300 300 299 300 301 301 301 300 301 301 302 302 301 301 300 300 298 295 297 296 301 301 301 301 301 300 300 299 297 296 295 294 293 293 292 292 291 291
301 301 299 299 298 300 301 300 300 300 300 300 301 299 301 300 301 301 300 301 301 299 293 298 297 300 301 301 301 301 301 300 298 297 296 295 294 293 293 292 292 291 291 291
300 299 297 299 299 300 297 296 300 301 300 301 300 299 300 299 300 300 301 299 297 296 296 297 297 300 301 301 301 301 300 298 297 296 296 295 293 293 292 292 291 291 290 291
300 298 298 299 299 299 300 301 301 302 301 300 299 299 299 298 299 299 299 300 296 295 297 299 300 301 300 301 301 300 299 297 296 296 295 294 293 293 292 292 291 291 291 291
299 298 297 299 299 299 300 302 302 302 300 300 300 298 298 299 299 299 299 297 297 297 298 300 300 301 301 301 301 300 298 297 296 296 295 293 293 293 292 292 291 291 291 291
297 297 300 299 300 300 301 302 302 301 300 297 299 299 300 299 300 298 295 296 296 299 300 301 300 301 302 302 301 298 297 297 296 295 294 293 293 292 292 292 291 291 291 291
Wind_Speed
27 25 20 12 5 6 6 3 3 3 5 3 6 3 2 4 3 6 6 4 6 3 4 3 3 3 3 3 3 3 4 2 4 7 4 4 3 2 2 4 6 3 3 9
28 27 25 16 5 4 5 3 4 6 5 3 2 4 4 7 3 5 4 3 5 3 2 2 3 5 7 5 3 2 3 2 4 5 5 6 4 4 3 2 2 6 3 9
27 27 26 20 10 4 4 2 2 6 9 8 7 5 3 2 4 3 5 3 1 0 1 2 2 2 6 6 5 6 3 2 6 6 4 2 7 5 6 3 2 10 15 22
25 26 26 24 15 6 3 4 3 3 2 7 9 5 4 4 1 2 1 2 5 3 1 2 2 2 3 5 7 7 5 3 4 10 9 10 15 17 14 13 13 10 25 22
23 23 24 24 21 10 9 4 3 5 3 3 6 3 2 4 2 2 2 2 6 3 2 1 2 2 1 3 5 3 2 3 3 9 9 12 15 14 18 17 16 16 18 18
20 22 22 22 22 16 9 8 6 2 1 3 3 1 2 3 7 2 5 5 3 1 2 2 5 6 7 5 1 0 1 0 3 5 5 10 8 5 2 3 3 6 12 15
18 19 20 21 20 20 13 9 5 2 1 4 2 3 4 5 2 3 6 3 3 2 4 11 9 12 14 14 15 11 4 2 1 4 5 3 5 9 5 7 7 8 9 8
17 18 18 19 18 15 13 10 4 3 2 8 5 7 5 7 3 2 4 4 4 4 3 3 4 2 2 6 10 12 16 5 2 1 2 9 10 4 2 3 9 7 6 11
15 16 17 19 18 16 11 9 7 3 3 2 2 8 9 4 4 5 5 5 4 2 1 2 3 4 3 2 5 16 9 5 5 2 1 5 6 5 11 6 14 5 17 23
11 12 12 14 16 18 15 10 8 2 1 2 5 4 4 5 3 3 6 5 3 3 2 1 3 3 2 2 3 4 4 2 12 9 5 8 11 14 6 3 8 30 28 20
9 7 6 6 7 9 13 14 12 8 3 4 5 8 7 6 6 4 8 5 3 3 1 3 3 2 4 1 4 4 7 5 4 2 3 10 1 7 2 12 28 26 22 23
10 8 8 8 4 3 6 8 10 10 7 7 9 12 14 12 9 8 12 2 6 9 2 1 2 1 0 4 3 2 4 7 4 9 7 8 15 19 25 25 18 22 30 33
12 12 13 12 9 8 5 7 10 10 6 9 8 3 5 17 18 15 8 7 8 6 6 4 2 3 3 3 5 5 5 10 5 3 4 10 23 36 24 20 27 34 34 36
16 16 18 18 16 11 8 12 12 8 5 3 2 5 9 9 13 24 18 7 9 9 7 5 3 2 6 3 5 4 7 2 5 7 19 24 23 13 21 27 32 33 29 29
18 18 19 23 17 13 16 12 9 7 5 5 5 14 18 17 12 14 20 14 8 5 3 2 3 4 2 5 4 7 15 7 5 7 12 10 17 13 20 26 26 32 35 37
20 19 20 19 17 13 11 3 4 7 6 5 3 4 8 8 10 11 18 16 10 10 4 4 5 6 1 1 4 10 18 22 24 18 22 23 16 17 22 25 31 31 34 34
21 21 23 19 16 13 8 5 4 5 5 4 7 7 2 7 8 16 15 11 9 12 8 7 6 7 9 3 6 6 15 14 24 29 26 15 15 16 25 28 28 31 28 29
20 22 25 21 18 15 15 11 9 11 2 5 3 4 3 12 6 5 8 10 12 7 7 3 5 7 9 6 23 18 20 16 19 13 13 12 16 22 26 27 29 27 30 32
19 20 23 21 21 18 19 10 15 14 9 4 6 4 4 13 6 6 8 8 3 6 7 6 9 4 7 17 22 23 19 14 12 12 14 16 19 21 24 25 26 27 30 33
17 22 17 10 10 17 11 12 10 11 11 12 7 11 3 13 10 6 7 5 3 3 6 7 4 6 33 24 34 32 23 16 15 13 15 16 19 21 21 21 23 24 26 29
17 21 17 9 20 18 12 10 10 10 6 10 10 25 8 12 5 4 8 4 4 3 4 5 4 4 11 24 25 27 28 21 18 15 15 15 16 15 16 20 21 22 24 29
19 11 13 19 12 9 8 6 7 7 6 10 11 12 23 10 8 5 9 4 4 5 8 2 4 4 17 17 19 16 16 22 19 17 16 17 16 13 15 18 20 22 24 25
21 12 5 9 11 7 10 11 6 5 9 15 19 7 15 7 7 5 4 5 5 2 2 4 6 10 13 14 19 19 17 16 14 15 15 15 14 11 13 15 18 20 19 23
11 9 5 6 5 6 6 4 6 8 12 29 27 12 8 7 5 5 4 4 1 3 4 6 5 22 20 20 20 18 17 15 14 15 15 14 10 11 12 14 15 15 18 21
13 10 8 7 14 12 12 21 10 13 26 35 19 7 5 3 3 4 3 5 6 7 5 4 9 11 23 26 23 20 17 15 16 16 14 13 10 10 12 13 13 14 17 18
10 10 7 14 7 15 20 17 15 22 30 23 8 5 5 5 4 6 8 5 8 5 5 20 15 15 21 27 24 20 16 16 17 16 14 11 10 11 12 11 12 13 15 15
9 12 33 34 26 25 21 19 22 33 35 5 6 9 9 5 4 6 6 6 4 16 18 11 15 23 24 25 22 19 18 19 18 15 13 10 10 10 10 13 13 13 14 12
Wind_Direction
30 28 29 36 96 108 105 72 64 62 338 72 58 66 66 101 18 30 49 73 46 56 50 353 53 107 78 86 3 19 2 140 272 255 316 142 155 210 153 125 279 254 151 264
27 27 26 29 55 100 83 71 65 43 6 99 68 77 58 59 41 18 29 82 34 11 59 85 62 94 143 115 88 102 15 341 336 333 0 357 35 328 348 289 155 208 165 261
24 24 25 26 41 85 92 95 49 47 60 79 122 127 137 100 45 52 58 112 240 36 205 99 108 85 196 192 136 150 117 206 193 212 221 293 274 290 306 253 167 285 250 286
21 22 22 25 28 49 92 56 76 57 4 20 72 85 128 140 140 87 76 84 98 100 87 6 213 94 75 188 162 154 138 241 238 271 284 293 284 286 278 256 252 240 283 279
15 17 21 24 26 30 69 83 86 80 69 48 90 47 51 132 117 138 205 114 132 112 163 137 248 77 139 217 228 163 161 273 319 285 268 269 278 284 283 267 263 265 274 287
9 10 13 18 25 33 68 88 90 92 120 339 82 242 104 100 115 38 60 94 100 283 149 292 270 259 255 245 155 57 314 189 5 266 326 311 301 243 247 269 236 276 294 294
2 6 8 12 17 28 44 65 88 65 265 83 152 111 111 125 90 127 147 129 141 170 278 296 275 257 254 248 244 215 189 111 171 272 353 342 243 314 293 280 276 275 285 306
354 359 3 6 8 15 23 45 58 78 106 130 117 138 128 120 132 148 159 160 169 246 333 28 11 356 303 246 220 211 202 141 278 295 212 277 290 249 256 275 298 241 275 304
350 354 359 1 360 2 7 26 52 93 107 285 139 172 182 174 191 167 166 157 235 262 108 77 128 211 217 291 312 207 181 162 157 141 194 256 235 278 334 294 297 179 321 313
344 349 359 4 360 352 351 1 10 49 131 181 188 182 192 201 180 151 152 174 151 162 77 157 179 252 155 217 221 187 152 205 218 229 241 272 250 272 334 57 278 320 322 320
321 322 329 349 2 351 341 337 347 339 293 265 238 223 206 182 194 149 143 100 185 127 151 152 238 158 238 329 237 194 174 179 207 157 182 263 144 5 86 281 308 313 325 326
299 297 295 300 303 312 316 324 338 331 305 267 265 259 238 215 196 197 179 172 162 182 141 242 95 293 98 184 250 228 233 195 193 183 217 233 289 309 308 315 328 331 326 321
300 281 280 278 285 290 302 312 330 327 306 292 282 275 304 230 223 214 197 200 195 194 177 164 196 225 134 199 232 219 262 227 232 18 263 267 302 300 304 326 328 327 323 317
291 287 279 278 279 280 295 307 314 320 312 317 287 283 278 277 238 226 217 183 191 182 190 187 165 182 200 237 246 216 218 322 238 260 284 288 282 292 310 322 327 328 321 322
279 284 291 282 271 284 296 305 281 268 247 259 247 271 275 266 259 228 218 216 214 203 180 183 219 225 281 273 279 246 213 218 186 241 247 266 292 299 326 333 328 323 327 327
264 275 278 280 276 285 291 274 250 226 242 286 308 244 248 236 225 209 209 215 225 212 206 211 230 198 266 262 255 241 226 236 244 249 275 295 292 320 331 324 323 323 324 326
259 259 265 262 256 246 228 230 175 200 186 283 302 295 245 212 205 208 201 197 207 217 233 232 211 192 203 239 255 235 232 247 279 282 291 290 306 325 317 316 322 328 331 329
255 248 255 250 241 223 219 218 210 164 242 247 258 263 267 197 165 156 185 181 196 227 228 212 206 204 213 252 245 256 261 261 280 253 258 288 300 304 317 325 334 337 333 330
247 241 245 221 213 207 221 224 224 225 233 247 225 198 222 172 161 152 167 179 163 213 220 216 188 201 220 240 250 246 244 254 256 246 270 290 302 314 322 332 337 334 331 332
237 231 197 204 190 192 167 176 196 214 214 226 235 199 220 177 166 151 144 174 215 227 221 186 230 252 246 252 255 255 249 241 245 250 276 297 308 318 325 329 330 328 326 328
233 218 201 193 165 160 174 188 195 203 228 218 226 205 175 185 145 152 190 174 189 238 237 174 245 262 236 255 257 247 241 234 246 260 280 288 301 317 323 327 327 327 329 331
228 250 178 163 186 190 184 188 197 211 220 199 183 186 192 174 166 142 180 188 184 243 171 183 259 246 241 246 246 227 215 216 235 262 280 294 303 315 321 325 321 328 330 334
241 230 206 196 188 205 192 189 201 201 194 173 161 139 163 150 173 159 163 193 222 191 169 232 234 255 233 220 198 194 206 225 246 267 281 293 305 314 317 320 321 329 329 338
204 190 256 233 199 227 202 219 218 177 177 162 153 138 149 159 156 163 197 188 219 236 229 234 244 232 223 203 202 208 215 231 252 265 281 287 299 305 313 316 321 328 334 341
206 184 201 229 241 232 238 248 244 179 171 148 144 112 130 139 170 189 171 191 228 213 226 229 252 244 220 206 210 216 223 234 250 265 276 285 286 293 305 318 320 322 334 342
209 214 208 203 204 249 258 268 202 163 150 144 144 157 157 191 179 181 199 204 217 228 217 239 246 229 211 208 214 222 230 241 254 267 275 274 273 286 295 312 316 322 334 345
204 218 226 233 245 253 243 235 202 173 156 172 167 182 193 135 191 207 192 215 214 219 230 241 228 216 209 207 215 222 231 247 256 264 273 262 271 281 290 304 315 318 325 339